Weather History for Wichita Jabara, KS

Change the Weather History Date:

Sunday, January 13, 2013

  Actual Average (KICT) Record (KICT)
Temperature  
Mean Temperature 20 °F 32 °F  
Max Temperature 28 °F 42 °F 70 °F (1996)
Min Temperature 12 °F 22 °F -11 °F (1916)
Degree Days  
Heating Degree Days 45 33  
Month to date heating degree days 429  
Since 1 July heating degree days 2272  
Cooling Degree Days 0 0  
Month to date cooling degree days 0  
Year to date cooling degree days 0  
Moisture  
Dew Point 6 °F    
Average Humidity 60    
Maximum Humidity 74    
Minimum Humidity 36    
Precipitation  
Precipitation 0.00 in 0.02 in 0.54 in (1898)
Month to date precipitation 0.30  
Year to date precipitation 0.30  
Snow  
Snow 0.00 in 0.10 in 4.50 in (1898)
Month to date snowfall 1.4  
Since 1 July snowfall 7.0  
Snow Depth -    
Sea Level Pressure  
Sea Level Pressure 30.31 in    
Wind  
Wind Speed 13 mph (NNW)    
Max Wind Speed 22 mph    
Max Gust Speed 26 mph    
Visibility 10 miles    
Events      
T = Trace of Precipitation, MM = Missing Value Source: NWS Daily Summary

Daily Weather History Graph

Daily Weather History Graph

Search for Another Location

Airport:

Trip Planner

Search our weather history database for the weather conditions in past years. The results will help you decide how hot, cold, wet, or windy it might be!

Date:

Astronomy

Jan. 13, 2013 Rise Set
Actual Time 7:43 AM CST 5:32 PM CST
Civil Twilight 7:14 AM CST 6:00 PM CST
Nautical Twilight 6:42 AM CST 6:33 PM CST
Astronomical Twilight 6:10 AM CST 7:04 PM CST
Moon 8:45 AM CST (1/13) 8:08 PM CST (1/13)
Length of Visible Light 10h 46m
Length of Day
9h 48m
Waxing Crescent, 5% of the Moon is Illuminated
Jan 13
Waxing Crescent
Jan 18
First Quarter
Jan 26
Full
Feb 3
Last Quarter
Feb 10
New

Hourly Weather History & Observations

Time (CST) Temp. Windchill Dew Point Humidity Pressure Visibility Wind Dir Wind Speed Gust Speed Precip Events Conditions
12:54 AM 18.0 °F 3.1 °F 8.1 °F 65% 30.15 in 10.0 mi NNW 16.1 mph - N/A   Clear
1:54 AM 18.0 °F 4.8 °F 9.0 °F 68% 30.17 in 10.0 mi North 12.7 mph - N/A   Clear
2:54 AM 17.1 °F 1.5 °F 9.0 °F 71% 30.20 in 10.0 mi North 17.3 mph 23.0 mph N/A   Clear
3:54 AM 16.0 °F -1.7 °F 6.1 °F 65% 30.21 in 10.0 mi NNW 21.9 mph 26.5 mph N/A   Clear
4:54 AM 16.0 °F 2.3 °F 6.1 °F 65% 30.22 in 10.0 mi North 12.7 mph 23.0 mph N/A   Overcast
5:54 AM 14.0 °F 2.0 °F 6.1 °F 71% 30.24 in 10.0 mi North 9.2 mph - N/A   Clear
6:54 AM 12.0 °F -3.4 °F 5.0 °F 73% 30.27 in 10.0 mi North 13.8 mph - N/A   Clear
7:54 AM 12.0 °F -2.7 °F 5.0 °F 73% 30.30 in 10.0 mi North 12.7 mph - N/A   Clear
8:54 AM 14.0 °F -2.0 °F 5.0 °F 67% 30.33 in 10.0 mi North 16.1 mph - N/A   Clear
9:54 AM 17.1 °F 3.6 °F 6.1 °F 62% 30.36 in 10.0 mi NNW 12.7 mph - N/A   Clear
10:54 AM 19.9 °F 7.3 °F 6.1 °F 55% 30.37 in 10.0 mi NNW 12.7 mph - N/A   Clear
11:54 AM 21.9 °F 14.5 °F 5.0 °F 48% 30.33 in 10.0 mi NNW 5.8 mph - N/A   Clear
12:54 PM 25.0 °F 12.6 °F 3.9 °F 41% 30.31 in 10.0 mi NNW 15.0 mph - N/A   Clear
1:54 PM 27.0 °F 18.0 °F 3.9 °F 37% 30.29 in 10.0 mi NW 9.2 mph - N/A   Clear
2:54 PM 28.0 °F 19.3 °F 3.9 °F 36% 30.31 in 10.0 mi NW 9.2 mph - N/A   Clear
3:54 PM 28.0 °F 17.5 °F 5.0 °F 38% 30.31 in 10.0 mi NNW 12.7 mph - N/A   Clear
4:54 PM 26.1 °F 15.6 °F 6.1 °F 43% 30.33 in 10.0 mi NNW 11.5 mph - N/A   Clear
5:54 PM 21.9 °F 15.7 °F 7.0 °F 53% 30.35 in 10.0 mi NNW 4.6 mph - N/A   Clear
6:54 PM 19.0 °F 12.3 °F 8.1 °F 62% 30.36 in 10.0 mi NNW 4.6 mph - N/A   Clear
7:54 PM 19.9 °F 14.9 °F 8.1 °F 60% 30.37 in 10.0 mi North 3.5 mph - N/A   Clear
8:54 PM 19.0 °F 13.9 °F 7.0 °F 59% 30.38 in 10.0 mi NNW 3.5 mph - N/A   Clear
9:54 PM 15.1 °F 4.2 °F 7.0 °F 70% 30.38 in 10.0 mi North 8.1 mph - N/A   Clear
10:54 PM 14.0 °F 3.9 °F 7.0 °F 74% 30.39 in 10.0 mi North 6.9 mph - N/A   Clear
11:54 PM 14.0 °F 3.9 °F 7.0 °F 74% 30.41 in 10.0 mi North 6.9 mph - N/A   Clear